Location: Maccacari
(45.1333°N, 11.1333°E)
Time: 08:37:59
(UTC+00:00)

Resurs 01 Rocket - Pass Details

Date: 18 September 2020
Orbit: 633 x 645 km, 98.0° (Epoch: 29 October)

Event Time Altitude Azimuth Distance (km) Brightness Sun altitude
Exits shadow 19:19:14 43° 66° (ENE) 905 2.1 -21.1°
Drops below altitude 10° 19:23:22 10° 360° (N) 2,052 4.5 -21.8°
Sets 19:25:39 0° 353° (N) 2,966 5.5 -22.2°
